Flughafen Wetterinformationen

LTBA 192220Z 01006KT 8000 NSC 18/15 Q1020 NOSIG

VATSIM Feed

Card image cap

ATC Buchungen

Es wurde keine Position gebucht

Card image cap

Aktive Flugsicherung

Derzeit sind keine Fluglotsen Online

Blog

Read our latest news and get to know us better.